Simultaneous Nadir Overpasses (SNOs) Predictions

Prediction of SNOs between GOES-16 and LANDSAT-8 Satellite Orbit:

Table of predicted SNOs for the next 14.0 days since TLE Epoch: 6/24/2023
Index Date Time (GOES-16) GOES-16 Lat,Lon LANDSAT-8 Lat,Lon Distance(km) Time Diff (sec)
1 06/24/2023 03:09:06 0.00, -75.19 0.11, -74.67 59.71 80
2 06/26/2023 02:56:58 0.01, -75.20 0.74, -71.72 396.44 80
3 06/26/2023 15:20:53 -0.00, -75.21 0.36, -76.87 189.17 80
4 06/28/2023 15:06:04 -0.00, -75.23 -0.30, -73.93 148.36 80
5 06/29/2023 03:30:08 -0.00, -75.23 -0.85, -79.11 441.80 80
6 06/30/2023 14:53:54 -0.00, -75.25 -0.92, -70.97 486.04 80
7 07/01/2023 03:17:58 0.00, -75.25 -0.22, -76.16 104.13 80
8 07/03/2023 03:03:08 0.01, -75.26 0.42, -73.20 233.67 80
9 07/03/2023 15:27:04 -0.00, -75.27 0.66, -78.36 351.76 80
10 07/05/2023 15:14:54 -0.01, -75.29 -0.00, -75.41 13.53 80
11 07/07/2023 15:00:03 -0.02, -75.32 -0.63, -72.45 325.92 80
